Theta_e
349 351 351 352 351 349 349 348 349 348 345 344 343 342 340 341 340 338 337 336 335 334 335 334 331 330 328 327 327 327 324 326 320 324 327 329 329 329 330 331 332 331 324
349 349 350 349 348 347 346 347 346 345 343 342 340 338 337 337 338 336 334 334 332 332 333 333 329 332 329 329 328 327 325 328 323 321 324 326 327 329 330 330 332 333 329
345 344 344 345 345 345 344 344 343 343 342 339 338 336 335 336 336 334 335 333 332 334 333 331 330 330 328 329 327 327 327 327 327 324 323 325 326 329 330 329 330 330 326
342 341 342 343 343 342 343 343 341 340 338 338 339 333 335 335 334 333 335 331 332 334 333 333 332 330 330 329 329 328 328 326 326 324 323 322 322 326 326 323 320 322 320
339 339 340 341 341 340 339 339 337 338 336 336 336 336 337 333 330 332 335 333 333 332 333 333 331 325 322 325 331 328 327 325 325 322 321 320 319 320 319 320 318 318 317
337 337 338 336 337 338 339 339 339 336 336 337 335 334 333 329 310 318 331 333 332 333 330 329 326 319 319 319 322 322 325 327 325 321 320 319 319 318 319 318 316 315 311
334 334 334 335 336 337 337 336 337 335 335 335 332 333 332 325 305 310 317 334 334 332 332 329 325 327 324 326 315 315 316 315 319 324 321 321 319 319 319 317 317 315 312
332 332 333 333 334 336 335 335 337 336 336 336 335 334 332 320 304 306 311 334 333 333 332 329 328 331 327 328 329 325 326 323 322 327 325 323 322 321 321 320 317 315 316
330 330 331 332 332 333 335 332 337 337 335 334 334 333 331 324 303 305 314 333 332 331 332 329 330 326 305 305 328 326 321 316 307 305 304 304 305 307 315 318 315 313 311
329 330 331 332 332 335 336 335 337 338 335 334 333 334 324 324 304 304 314 333 330 328 328 325 307 320 302 304 328 326 319 317 317 317 315 309 311 309 309 320 317 313 312
330 330 332 334 336 337 338 338 336 336 335 334 332 333 333 326 315 304 307 332 329 328 326 323 317 300 300 301 306 326 320 320 314 318 317 316 317 318 319 319 322 317 314
329 329 333 335 332 335 337 336 337 335 333 331 330 331 332 328 312 304 305 306 310 328 326 323 311 299 300 302 310 299 303 313 320 317 315 314 315 315 318 318 322 320 322
329 330 332 334 332 334 336 335 333 333 330 330 328 327 327 326 321 301 301 303 306 325 320 305 297 296 298 303 300 301 305 320 318 314 314 314 316 317 318 318 320 322 323
330 330 333 332 331 334 333 333 332 331 330 329 328 328 326 325 324 324 320 316 306 311 306 312 305 304 302 305 309 309 321 320 318 316 314 316 318 317 317 319 317 318 318
330 331 332 329 329 323 315 315 327 319 327 329 328 328 325 323 321 314 318 324 324 314 313 316 317 315 314 315 317 318 320 320 318 318 316 316 316 316 316 319 319 319 318
330 331 329 329 330 326 327 321 297 297 296 296 302 319 318 306 299 300 299 299 299 301 316 316 315 314 314 315 315 316 317 317 319 318 317 317 316 317 317 318 319 318 318
330 332 329 329 330 329 327 327 321 311 296 295 295 302 306 298 296 297 297 296 296 305 318 317 315 316 315 315 316 316 316 319 320 318 318 318 319 319 314 317 318 321 321
333 314 328 331 330 330 329 329 326 323 321 320 300 301 294 295 294 296 296 302 314 313 319 317 316 316 317 316 317 317 318 320 319 319 319 319 320 321 320 319 320 320 320
330 328 330 330 332 328 330 329 327 326 325 322 316 306 296 293 294 295 295 322 320 320 320 320 319 318 319 319 319 319 320 318 321 320 320 320 322 322 320 321 321 304 309
331 316 317 329 328 330 329 327 327 327 326 324 322 318 313 313 316 316 317 320 324 322 323 321 322 322 321 322 319 320 321 317 320 321 321 322 324 323 321 321 322 321 320
330 329 308 325 327 327 328 326 326 327 327 326 325 319 302 321 320 321 322 324 325 326 325 323 323 326 326 326 324 323 323 322 323 324 325 325 325 323 325 324 323 324 323
328 326 326 327 325 326 326 328 329 327 327 327 326 313 297 324 324 325 326 326 327 329 327 325 325 327 327 327 326 326 325 325 326 327 326 326 326 326 326 325 325 323 322
331 327 323 326 325 315 322 326 325 327 328 327 325 320 318 323 327 327 328 330 327 327 330 327 327 327 329 328 329 328 326 327 328 328 326 327 326 326 326 325 323 322 321
327 325 326 326 323 326 326 326 325 310 324 329 325 324 324 327 323 326 327 331 330 328 324 319 316 307 314 312 309 306 301 301 313 328 329 328 326 322 325 325 324 324 323
319 316 316 317 318 318 321 322 319 317 316 318 324 325 321 320 316 318 319 318 315 311 307 303 304 303 299 297 296 295 289 287 297 292 323 327 327 326 325 324 324 324 325
309 309 307 306 305 305 306 305 306 308 306 305 306 308 312 311 309 308 310 309 309 308 305 302 298 296 296 294 291 287 286 287 292 288 313 328 327 326 326 325 325 324 322
Wind_Speed
13 12 12 11 11 10 8 7 8 8 10 9 8 8 7 6 6 6 4 7 6 6 5 4 5 5 4 3 3 3 2 2 3 2 2 5 6 5 3 7 8 7 5
13 12 12 12 12 10 8 8 8 6 7 6 7 7 7 7 6 6 7 7 6 6 5 5 5 4 5 4 5 5 3 3 2 4 2 2 4 9 6 9 6 7 7
13 11 11 12 11 9 9 9 8 7 6 6 6 7 7 7 6 6 6 5 6 6 5 5 5 6 4 4 4 4 4 4 3 4 4 3 3 4 5 6 6 9 7
13 12 12 11 11 9 8 8 7 7 6 6 6 9 9 7 6 5 5 4 4 5 5 4 4 5 6 6 5 5 5 5 4 6 5 4 3 4 5 6 6 5 6
13 14 12 11 10 9 8 8 7 6 5 6 7 5 5 5 2 3 2 6 6 5 5 4 7 7 10 5 1 5 5 5 7 6 5 3 3 3 6 3 6 7 5
13 13 12 11 11 9 8 7 6 8 7 6 5 6 6 6 6 10 4 4 6 6 5 6 5 5 6 7 4 4 4 5 6 7 4 6 4 6 7 8 9 8 4
12 13 12 12 12 11 9 8 6 8 6 6 6 9 8 6 6 8 7 4 5 6 5 7 3 3 6 6 6 10 9 9 6 1 9 9 8 7 8 8 9 6 4
13 13 13 12 12 12 11 8 6 7 7 6 7 8 8 5 7 6 6 5 5 6 6 7 4 3 4 5 8 9 8 6 3 1 8 8 8 9 9 9 12 9 8
13 12 12 12 11 10 11 10 7 7 6 6 7 8 9 6 5 4 2 5 6 6 5 5 4 5 3 6 8 10 9 7 10 16 15 14 14 12 10 11 10 11 6
13 12 11 12 11 10 9 9 7 7 6 7 7 7 10 7 4 3 3 3 5 5 6 5 8 7 6 4 4 10 9 7 9 10 8 10 9 8 7 7 12 11 7
12 11 11 9 11 10 9 7 7 7 6 5 6 6 10 9 5 3 6 3 4 6 5 4 4 7 6 5 7 3 10 10 9 10 7 6 6 6 4 3 8 9 10
12 12 13 12 10 8 9 7 6 7 7 5 7 5 7 8 8 5 8 9 7 4 6 5 5 8 7 6 4 10 15 11 7 8 6 6 6 5 4 3 8 8 2
13 11 12 8 11 8 9 8 7 5 6 6 6 7 7 6 5 7 7 8 10 8 5 8 10 8 8 6 5 10 8 8 7 7 6 6 5 5 5 4 5 5 1
14 13 12 9 7 6 5 7 7 6 5 5 6 6 6 6 6 5 4 6 9 10 9 5 6 8 6 6 3 3 4 8 7 7 6 6 7 5 5 5 3 3 5
14 12 11 8 8 8 8 4 6 4 2 5 5 6 6 6 6 5 4 5 4 8 8 4 4 3 4 4 4 4 5 7 8 7 7 7 7 6 5 3 4 2 2
13 11 9 8 8 7 8 9 16 10 13 13 9 4 4 12 13 14 14 15 15 12 4 5 5 4 4 5 5 3 3 7 8 7 7 6 7 7 7 4 4 4 3
11 11 9 10 8 8 9 9 8 7 14 15 11 10 12 10 13 14 14 13 9 8 5 5 5 4 5 4 4 3 2 5 8 7 7 7 7 6 6 7 5 4 5
10 12 10 10 9 8 8 10 9 8 7 6 12 10 11 13 12 15 13 10 3 3 2 6 6 4 5 5 5 5 4 3 6 7 8 6 6 6 6 7 7 6 4
11 8 8 10 11 10 8 11 9 9 9 9 7 7 10 13 11 6 1 3 6 4 4 4 6 6 5 6 6 6 6 5 5 6 6 7 7 6 6 5 6 8 8
9 10 6 4 8 7 6 9 10 10 9 9 8 9 7 6 5 5 6 4 6 6 4 5 6 6 7 6 6 6 7 6 6 6 7 7 5 6 7 8 8 8 8
7 5 5 2 7 7 6 5 9 10 10 9 9 10 11 9 8 7 6 6 5 7 8 7 6 7 7 7 8 8 7 8 8 8 8 8 7 7 7 7 8 9 7
7 6 4 6 7 8 7 4 3 11 11 11 11 10 14 7 9 8 7 7 7 5 7 8 8 8 7 8 8 6 9 9 8 7 7 8 8 9 9 8 8 6 4
6 1 5 3 2 5 5 8 7 3 9 13 11 10 9 7 5 8 7 4 7 7 6 8 6 7 7 6 10 9 8 9 9 9 8 8 8 7 9 9 5 5 6
7 7 2 3 7 4 3 5 8 11 4 13 11 10 9 4 8 6 5 2 3 8 10 13 15 19 12 12 10 10 9 9 6 5 13 11 9 6 5 5 8 10 9
7 10 12 11 12 10 12 13 13 13 14 13 9 9 14 12 13 12 12 12 12 14 17 15 13 18 19 18 16 13 9 8 6 7 5 3 5 8 9 6 9 10 10
10 11 12 12 12 11 11 13 13 13 14 13 13 13 12 13 13 12 12 13 13 15 15 13 17 22 21 17 18 16 16 16 14 10 5 6 6 6 6 7 9 7 8
Wind_Direction
163 167 158 173 127 124 137 121 109 114 137 159 167 153 150 158 148 159 191 191 169 146 145 198 173 150 210 180 203 231 191 177 134 51 86 140 126 114 147 92 133 116 112
159 158 154 127 130 135 129 122 121 129 138 162 171 132 126 142 146 166 209 182 155 150 178 171 198 167 220 243 187 217 176 215 126 138 118 103 106 159 160 136 140 120 118
147 136 129 133 135 137 131 132 142 157 162 171 149 134 141 150 162 195 213 124 148 171 173 185 216 188 187 199 197 197 226 175 156 132 119 77 56 96 97 89 84 97 90
142 133 135 138 140 136 139 147 155 149 174 165 124 135 138 151 181 222 133 156 124 146 171 188 175 202 192 194 180 212 201 135 159 121 111 96 77 75 89 112 87 77 107
134 135 140 135 132 136 141 166 162 152 129 130 113 113 136 178 180 153 175 149 151 140 110 105 62 76 67 92 251 191 197 156 131 126 116 109 118 122 124 97 105 101 73
133 133 135 139 152 157 160 136 126 122 119 129 152 143 129 96 80 78 91 162 134 127 137 104 117 113 101 98 89 70 170 164 137 140 142 141 115 109 127 131 130 134 103
132 141 154 162 158 161 132 137 154 138 135 139 141 120 105 108 99 85 67 132 135 148 142 118 121 113 171 132 93 89 83 93 104 126 138 154 137 143 135 131 131 121 113
146 161 159 166 153 148 150 156 150 144 135 134 123 124 117 106 101 94 65 115 124 108 123 122 154 128 78 145 124 117 98 76 68 52 132 137 130 140 143 136 122 108 100
159 159 161 156 157 161 138 147 129 124 138 148 154 152 123 124 110 106 18 128 134 137 114 72 157 117 103 9 130 112 97 76 49 73 79 100 120 128 129 125 132 132 129
159 160 162 152 158 126 132 127 137 148 153 155 150 143 127 127 132 72 21 146 121 122 116 99 38 136 130 48 120 130 115 120 108 92 88 90 105 109 128 149 149 143 139
153 151 147 130 110 115 116 125 144 149 150 144 141 136 129 128 121 73 39 171 165 159 142 136 89 112 112 74 47 83 132 127 116 111 106 110 101 105 98 79 164 151 156
147 145 119 122 130 126 128 139 141 139 146 155 130 119 124 114 119 77 64 58 17 88 95 93 103 114 108 90 75 120 122 121 120 119 122 120 115 114 100 90 124 143 155
138 132 128 127 116 128 138 134 131 147 148 143 154 143 137 130 116 95 83 79 44 76 73 94 108 108 114 97 99 133 136 122 125 126 129 130 125 121 114 102 87 128 160
127 125 115 117 114 115 95 151 140 148 158 159 160 148 147 143 144 155 144 114 97 94 109 100 104 95 69 94 101 148 133 137 135 131 138 133 127 138 145 150 146 150 130
132 131 132 130 107 89 63 12 93 37 152 147 156 156 160 161 151 120 143 154 143 112 119 135 115 101 123 129 122 117 130 134 133 135 141 140 139 152 163 177 169 166 147
139 136 147 148 127 125 113 83 46 43 65 69 71 107 57 104 110 103 100 105 116 133 130 123 120 123 109 114 118 115 83 131 136 140 144 152 156 161 177 174 181 189 208
154 144 156 143 153 166 145 134 122 61 63 55 59 90 103 118 108 110 113 113 127 133 132 129 130 126 128 120 121 129 118 129 139 148 155 159 161 183 171 175 199 203 227
147 143 155 156 168 180 174 141 140 147 140 116 42 77 80 107 114 118 125 120 125 139 164 139 144 141 137 142 144 147 149 136 149 156 166 174 179 179 181 177 202 217 225
151 177 184 167 180 186 157 143 145 152 143 124 123 81 76 77 72 70 280 148 156 158 171 148 158 162 161 160 167 161 164 174 169 167 175 184 197 172 192 198 213 223 217
160 183 224 172 150 148 157 146 149 139 143 140 154 134 133 124 142 180 222 251 165 166 188 152 165 172 173 174 167 177 173 172 196 175 184 204 192 189 197 215 224 229 218
159 172 224 247 150 157 176 154 147 148 142 149 143 144 159 152 169 189 200 221 209 171 171 158 192 189 184 175 180 180 176 184 197 194 188 202 196 201 218 223 232 238 227
155 176 197 234 158 175 155 170 128 155 155 148 131 148 172 183 175 188 211 191 206 195 158 168 195 182 184 173 186 200 182 197 196 191 188 202 206 206 217 225 237 220 229
57 158 182 245 186 131 154 152 152 206 112 126 134 148 178 206 218 184 192 221 152 196 185 180 187 195 192 181 180 190 198 194 192 194 197 210 219 227 224 230 210 230 239
29 47 264 20 2 133 84 13 97 44 103 136 141 153 170 158 24 22 352 158 130 52 37 32 53 42 38 37 30 39 19 352 328 234 205 206 209 223 239 227 220 228 235
48 67 60 38 53 52 68 65 64 64 58 53 59 79 68 69 59 53 55 61 67 58 57 49 49 51 53 49 43 33 11 330 16 319 345 333 249 217 233 253 269 272 271
56 64 71 65 53 55 55 66 56 57 63 56 59 51 60 64 57 50 45 57 60 61 61 58 53 46 45 36 26 12 3 2 2 357 351 3 347 334 334 337 324 312 291